FW0069 Weather Reports


time (UTC)temp
F
wind
direction
speed
knots
gust
knots
rain 1hr
in
rain 24hr
in
rain mn
in
humidity
%
barometer
mb
20260502163034 77 360 1.7 5.2 0.00 0.00 0.00 13 1018.5
20260502161533 76 360 1.7 7.0 0.00 0.00 0.00 14 1018.3
20260502161033 76 360 3.5 5.2 0.00 0.00 0.00 14 1018.3
20260502160533 76 182 3.5 7.8 0.00 0.00 0.00 14 1018.4
20260502151503 70 360 3.5 4.3 0.00 0.00 0.00 14 1017.9
20260502151034 70 360 2.6 5.2 0.00 0.00 0.00 15 1017.9
20260502150505 69 360 1.7 5.2 0.00 0.00 0.00 14 1017.9
20260502130533 62 360 0.9 3.5 0.00 0.00 0.00 17 1016.8
20260502123503 63 360 0.0 4.3 0.00 0.00 0.00 16 1016.6
20260502122533 64 360 2.6 4.3 0.00 0.00 0.00 16 1016.7
20260502122004 64 360 2.6 5.2 0.00 0.00 0.00 16 1016.6
20260502121503 64 360 0.9 5.2 0.00 0.00 0.00 16 1016.6
20260502121004 64 360 0.9 4.3 0.00 0.00 0.00 16 1016.6
20260502120533 64 360 1.7 4.3 0.00 0.00 0.00 16 1016.5
20260502115503 64 360 1.7 4.3 0.00 0.00 0.00 16 1016.4
20260502115033 64 360 0.9 5.2 0.00 0.00 0.00 16 1016.4
20260502114534 65 360 1.7 5.2 0.00 0.00 0.00 15 1016.5
20260502113503 65 360 2.6 4.3 0.00 0.00 0.00 15 1016.5
20260502113034 65 235 1.7 4.3 0.00 0.00 0.00 15 1016.5
20260502112503 66 360 0.9 4.3 0.00 0.00 0.00 15 1016.5
20260502112033 66 360 0.9 3.5 0.00 0.00 0.00 15 1016.4
20260502111033 66 360 3.5 5.2 0.00 0.00 0.00 15 1016.4
20260502110503 67 360 0.9 4.3 0.00 0.00 0.00 14 1016.7
20260502105033 66 360 0.9 6.1 0.00 0.00 0.00 14 1016.7
20260502104503 66 360 4.3 6.1 0.00 0.00 0.00 14 1016.6
20260502104033 66 360 0.9 6.1 0.00 0.00 0.00 14 1016.6
20260502103533 66 360 4.3 6.1 0.00 0.00 0.00 14 1016.6
20260502102533 66 25 0.0 7.8 0.00 0.00 0.00 15 1016.6
20260502102033 66 26 0.9 7.8 0.00 0.00 0.00 14 1016.7
20260502101533 66 360 7.0 7.0 0.00 0.00 0.00 14 1016.6
20260502101003 66 360 3.5 6.1 0.00 0.00 0.00 14 1016.7
20260502100503 66 273 2.6 2.6 0.00 0.00 0.00 15 1016.7
20260502091003 66 351 1.7 4.3 0.00 0.00 0.00 14 1016.6
20260502090503 66 338 4.3 4.3 0.00 0.00 0.00 15 1016.7
20260502071503 70 298 0.0 1.7 0.00 0.00 0.00 13 1016.5
20260502070033 71 300 0.9 1.7 0.00 0.00 0.00 12 1016.5
20260502065533 71 298 0.0 1.7 0.00 0.00 0.00 12 1016.4
20260502065033 72 360 1.7 2.6 0.00 0.00 0.00 12 1016.6
20260502064533 72 298 0.9 4.3 0.00 0.00 0.00 11 1016.5
20260502064034 72 299 1.7 4.3 0.00 0.00 0.00 11 1016.5
20260502063533 73 284 0.9 4.3 0.00 0.00 0.00 10 1016.4
20260502063033 73 15 1.7 4.3 0.00 0.00 0.00 10 1016.3
20260502062533 73 29 2.6 5.2 0.00 0.00 0.00 10 1016.2
20260502062033 73 14 2.6 6.1 0.00 0.00 0.00 10 1016.4
20260502061533 73 18 1.7 6.1 0.00 0.00 0.00 9 1016.3
20260502060532 73 360 4.3 8.7 0.00 0.00 0.00 10 1016.0
20260502055533 73 80 0.9 7.8 0.00 0.00 0.00 10 1016.1
20260502055032 73 56 1.7 8.7 0.00 0.00 0.00 10 1016.0
20260502054533 74 49 3.5 8.7 0.00 0.00 0.00 10 1015.9
20260502054032 74 44 7.0 11.3 0.00 0.00 0.00 10 1016.0
20260502053032 74 79 2.6 10.4 0.00 0.00 0.00 10 1016.0
20260502052533 74 46 6.1 12.2 0.00 0.00 0.00 10 1015.9
20260502052033 74 40 7.0 13.9 0.00 0.00 0.00 10 1015.9
20260502051532 74 67 3.5 13.9 0.00 0.00 0.00 10 1015.8
20260502051033 74 360 5.2 10.4 0.00 0.00 0.00 10 1015.7
20260502050533 74 70 4.3 8.7 0.00 0.00 0.00 10 1015.8
20260502050032 75 47 2.6 6.1 0.00 0.00 0.00 10 1015.8
20260502045033 75 53 0.9 4.3 0.00 0.00 0.00 10 1015.5
20260502044533 76 48 0.9 4.3 0.00 0.00 0.00 10 1015.6
20260502044033 76 46 2.6 7.8 0.00 0.00 0.00 10 1015.4
20260502043533 76 32 1.7 7.8 0.00 0.00 0.00 10 1015.3
20260502043032 76 46 4.3 7.8 0.00 0.00 0.00 9 1015.3
20260502042032 76 32 7.0 8.7 0.00 0.00 0.00 9 1015.0
20260502041532 77 47 5.2 8.7 0.00 0.00 0.00 9 1015.1
20260502041032 77 27 7.8 8.7 0.00 0.00 0.00 9 1015.1
20260502040534 77 39 3.5 7.8 0.00 0.00 0.00 9 1015.0
20260502040033 77 60 7.8 8.7 0.00 0.00 0.00 9 1015.0
20260502035533 77 56 2.6 8.7 0.00 0.00 0.00 9 1014.6
20260502035032 77 24 5.2 7.0 0.00 0.00 0.00 9 1014.5
20260502034533 77 38 0.9 7.0 0.00 0.00 0.00 9 1014.5
20260502034032 77 37 1.7 7.0 0.00 0.00 0.00 9 1014.5
20260502033533 78 34 3.5 7.8 0.00 0.00 0.00 9 1014.2
20260502033033 78 36 4.3 8.7 0.00 0.00 0.00 9 1014.2
20260502032533 78 34 4.3 8.7 0.00 0.00 0.00 9 1014.1
20260502032033 78 24 3.5 8.7 0.00 0.00 0.00 9 1014.0
20260502031533 78 13 6.1 8.7 0.00 0.00 0.00 9 1013.9
20260502031034 79 30 5.2 10.4 0.00 0.00 0.00 8 1014.0
20260502030033 79 31 5.2 12.2 0.00 0.00 0.00 8 1013.9
20260502025532 79 19 1.7 10.4 0.00 0.00 0.00 8 1013.5
20260502025032 79 28 4.3 10.4 0.00 0.00 0.00 8 1013.4
20260502024534 80 45 3.5 7.0 0.00 0.00 0.00 8 1013.5
20260502024033 80 36 5.2 7.0 0.00 0.00 0.00 8 1013.4
20260502023532 80 355 1.7 7.0 0.00 0.00 0.00 8 1013.3
20260502023033 80 18 2.6 5.2 0.00 0.00 0.00 8 1013.4
20260502022003 81 360 2.6 8.7 0.00 0.00 0.00 9 1013.2
20260502021532 81 360 4.3 8.7 0.00 0.00 0.00 8 1013.3
20260502021033 81 360 4.3 6.1 0.00 0.00 0.00 8 1013.2
20260502020032 82 360 3.5 8.7 0.00 0.00 0.00 8 1013.3
20260502015532 82 360 1.7 8.7 0.00 0.00 0.00 8 1012.7
20260502014033 82 360 5.2 9.6 0.00 0.00 0.00 8 1012.6
20260502013502 82 360 1.7 7.8 0.00 0.00 0.00 9 1012.5
20260502013033 83 360 4.3 10.4 0.00 0.00 0.00 8 1012.7
20260502012533 83 360 2.6 10.4 0.00 0.00 0.00 8 1012.8
20260502012032 83 360 4.3 8.7 0.00 0.00 0.00 8 1012.8
20260502011532 83 360 2.6 11.3 0.00 0.00 0.00 8 1012.8
20260502011032 84 360 5.2 11.3 0.00 0.00 0.00 8 1012.8
20260502010532 84 360 5.2 10.4 0.00 0.00 0.00 9 1012.7
20260502010032 84 360 3.5 11.3 0.00 0.00 0.00 9 1012.6
20260502005532 84 279 2.6 11.3 0.00 0.00 0.00 8 1012.4
20260502005032 84 360 4.3 8.7 0.00 0.00 0.00 8 1012.4
20260502004032 84 360 3.5 7.0 0.00 0.00 0.00 9 1012.6
20260502003532 84 323 2.6 7.0 0.00 0.00 0.00 9 1012.6
20260502003032 84 360 2.6 7.0 0.00 0.00 0.00 9 1012.5
20260502002533 84 315 3.5 7.0 0.00 0.00 0.00 8 1012.5
20260502002032 84 16 3.5 7.0 0.00 0.00 0.00 8 1012.5
20260502001532 84 19 1.7 5.2 0.00 0.00 0.00 8 1012.6
20260502001032 84 151 0.9 8.7 0.00 0.00 0.00 9 1012.6
20260502000533 84 34 5.2 8.7 0.00 0.00 0.00 9 1012.6
20260502000032 83 25 3.5 7.0 0.00 0.00 0.00 9 1012.5
20260501235503 84 123 1.7 7.8 0.00 0.00 0.00 8 1012.7
20260501235032 84 231 0.0 13.0 0.00 0.00 0.00 9 1012.9
20260501234504 84 360 6.1 13.0 0.00 0.00 0.00 8 1012.8
20260501234032 85 281 1.7 9.6 0.00 0.00 0.00 8 1012.8
20260501233532 84 360 5.2 9.6 0.00 0.00 0.00 9 1012.7
20260501233032 85 79 2.6 12.2 0.00 0.00 0.00 8 1012.7
20260501231502 85 274 0.9 9.6 0.00 0.00 0.00 9 1013.1
20260501231032 85 360 3.5 9.6 0.00 0.00 0.00 8 1013.0
20260501230532 85 360 4.3 9.6 0.00 0.00 0.00 8 1013.0
20260501230032 84 360 3.5 8.7 0.00 0.00 0.00 9 1013.1
20260501225532 84 289 4.3 8.7 0.00 0.00 0.00 8 1013.0
20260501225032 84 351 6.1 8.7 0.00 0.00 0.00 10 1013.0
20260501224533 83 172 3.5 5.2 0.00 0.00 0.00 11 1013.3
20260501224032 83 177 1.7 5.2 0.00 0.00 0.00 10 1013.3
20260501223032 85 126 3.5 7.0 0.00 0.00 0.00 10 1013.6
20260501222532 84 61 2.6 9.6 0.00 0.00 0.00 11 1013.4
20260501222032 84 113 1.7 9.6 0.00 0.00 0.00 10 1013.5
20260501221532 83 82 4.3 7.0 0.00 0.00 0.00 10 1013.6
20260501221032 84 286 0.9 9.6 0.00 0.00 0.00 11 1013.7
20260501215532 84 257 0.9 5.2 0.00 0.00 0.00 9 1013.6
20260501215002 84 293 1.7 9.6 0.00 0.00 0.00 11 1013.9
20260501214502 84 109 1.7 9.6 0.00 0.00 0.00 11 1013.8
20260501213532 85 360 0.9 6.1 0.00 0.00 0.00 11 1014.0
20260501212532 82 175 1.7 5.2 0.00 0.00 0.00 11 1013.9
20260501211532 83 106 1.7 3.5 0.00 0.00 0.00 11 1014.3
20260501211032 82 360 0.0 5.2 0.00 0.00 0.00 12 1014.0
20260501210532 81 360 2.6 7.0 0.00 0.00 0.00 12 1014.1
20260501205502 83 291 0.9 6.1 0.00 0.00 0.00 11 1014.4
20260501205032 82 43 0.9 7.0 0.00 0.00 0.00 12 1014.4
20260501204532 82 360 1.7 7.0 0.00 0.00 0.00 12 1014.5
20260501204032 83 360 3.5 4.3 0.00 0.00 0.00 12 1014.5
20260501203532 82 360 0.0 4.3 0.00 0.00 0.00 12 1014.5
20260501203032 82 360 2.6 4.3 0.00 0.00 0.00 12 1014.5
20260501202533 81 360 1.7 4.3 0.00 0.00 0.00 12 1014.5
20260501202032 80 360 0.0 5.2 0.00 0.00 0.00 14 1014.7
20260501201532 80 360 2.6 6.1 0.00 0.00 0.00 13 1014.8
20260501201032 80 360 1.7 6.1 0.00 0.00 0.00 13 1014.8
20260501200502 81 360 5.2 7.0 0.00 0.00 0.00 13 1014.7
20260501200032 81 144 0.0 7.0 0.00 0.00 0.00 13 1014.8
20260501195532 83 360 2.6 6.1 0.00 0.00 0.00 12 1015.4
20260501195032 83 140 3.5 4.3 0.00 0.00 0.00 13 1015.4
20260501194532 81 144 2.6 4.3 0.00 0.00 0.00 13 1015.4
20260501194033 79 360 0.0 4.3 0.00 0.00 0.00 13 1015.3
20260501193532 79 360 0.0 8.7 0.00 0.00 0.00 13 1015.5
20260501193032 81 161 0.9 8.7 0.00 0.00 0.00 13 1015.7
20260501192531 81 130 5.2 7.8 0.00 0.00 0.00 12 1015.6
20260501192032 81 360 6.1 6.1 0.00 0.00 0.00 13 1015.7
20260501190532 80 220 3.5 7.0 0.00 0.00 0.00 13 1015.8
20260501190032 80 234 5.2 7.0 0.00 0.00 0.00 13 1016.0
20260501185532 80 360 2.6 9.6 0.00 0.00 0.00 13 1016.3
20260501185032 81 360 4.3 9.6 0.00 0.00 0.00 13 1016.5
20260501184531 81 360 3.5 7.0 0.00 0.00 0.00 13 1016.5
20260501184033 81 360 4.3 7.8 0.00 0.00 0.00 13 1016.6
20260501183531 81 186 0.9 7.8 0.00 0.00 0.00 13 1016.6
20260501183031 81 103 3.5 6.1 0.00 0.00 0.00 13 1016.6
20260501182503 81 181 1.7 7.0 0.00 0.00 0.00 13 1016.7
20260501182031 80 360 2.6 7.0 0.00 0.00 0.00 13 1016.7
20260501181532 79 192 0.9 5.2 0.00 0.00 0.00 14 1016.5
20260501180531 79 360 4.3 8.7 0.00 0.00 0.00 14 1016.6
20260501180032 79 238 0.9 8.7 0.00 0.00 0.00 13 1016.6
20260501175531 79 199 3.5 6.1 0.00 0.00 0.00 13 1016.7
20260501175032 79 217 0.9 5.2 0.00 0.00 0.00 13 1016.8
20260501174533 79 360 2.6 7.0 0.00 0.00 0.00 14 1016.9
20260501174002 78 175 1.7 7.0 0.00 0.00 0.00 13 1016.6
20260501173501 79 198 2.6 4.3 0.00 0.00 0.00 14 1016.9
20260501173032 78 360 0.9 7.0 0.00 0.00 0.00 14 1016.7
20260501172531 78 113 4.3 7.0 0.00 0.00 0.00 14 1016.7
20260501172032 77 188 0.0 6.1 0.00 0.00 0.00 14 1016.7
20260501171532 78 229 0.9 6.1 0.00 0.00 0.00 15 1016.9
20260501171031 77 329 0.0 6.1 0.00 0.00 0.00 15 1016.8
20260501170532 78 360 1.7 6.1 0.00 0.00 0.00 14 1016.8
20260501170032 77 211 0.9 7.0 0.00 0.00 0.00 15 1016.9
20260501165531 77 270 1.7 7.0 0.00 0.00 0.00 15 1017.0
20260501164532 77 360 0.9 5.2 0.00 0.00 0.00 14 1017.0
20260501164032 76 360 1.7 7.8 0.00 0.00 0.00 16 1016.9
20260501163531 76 360 1.7 7.8 0.00 0.00 0.00 16 1016.8